EW4389 Weather Reports


Display with metric or nautical units.
time (UTC)temp
F
wind
direction
speed
MPH
gust
MPH
rain 1hr
in
rain 24hr
in
rain mn
in
humidity
%
barometer
mb
20260905123009 62 339 1.0 5.0 0.00 0.00 0.00 36 1010.5
20260905121507 61 339 3.0 5.0 0.00 0.00 0.00 36 1010.4
20260905120006 61 339 2.0 6.0 0.00 0.00 0.00 36 1010.3
20260905114506 60 329 1.0 5.0 0.00 0.00 0.00 37 1010.0
20260905113001 60 329 2.0 4.0 0.00 0.00 0.00 37 1009.8
20260905111502 60 324 1.0 4.0 0.00 0.00 0.00 37 1009.6
20260905110104 60 330 2.0 5.0 0.00 0.00 0.00 37 1009.6
20260905104612 59 329 2.0 4.0 0.00 0.00 0.00 37 1009.6
20260905103100 59 329 1.0 4.0 0.00 0.00 0.00 38 1009.4
20260905101603 58 328 0.0 3.0 0.00 0.00 0.00 39 1009.4
20260905100100 58 330 1.0 2.0 0.00 0.00 0.00 39 1009.2
20260905094555 59 330 0.0 2.0 0.00 0.00 0.00 40 1009.0
20260905093054 59 330 0.0 2.0 0.00 0.00 0.00 40 1009.0
20260905091553 59 330 0.0 0.0 0.00 0.00 0.00 40 1008.9
20260905090114 59 330 0.0 1.0 0.00 0.00 0.00 40 1008.7
20260905084550 60 330 0.0 0.0 0.00 0.00 0.00 40 1008.8
20260905083047 60 330 0.0 1.0 0.00 0.00 0.00 40 1008.8
20260905081546 61 330 0.0 0.0 0.00 0.00 0.00 39 1008.8
20260905080044 61 330 0.0 1.0 0.00 0.00 0.00 39 1008.9
20260905074546 61 330 0.0 2.0 0.00 0.00 0.00 40 1009.1
20260905073045 61 330 0.0 2.0 0.00 0.00 0.00 42 1009.1
20260905071540 62 330 0.0 0.0 0.00 0.00 0.00 41 1009.0
20260905070046 63 330 0.0 1.0 0.00 0.00 0.00 39 1009.1
20260905064537 63 330 0.0 2.0 0.00 0.00 0.00 38 1009.3
20260905063036 63 330 0.0 5.0 0.00 0.00 0.00 38 1009.4
20260905061540 63 329 2.0 6.0 0.00 0.00 0.00 39 1009.5
20260905060036 62 330 2.0 4.0 0.00 0.00 0.00 40 1009.5
20260905054537 62 330 2.0 5.0 0.00 0.00 0.00 43 1009.5
20260905053030 62 329 2.0 4.0 0.00 0.00 0.00 45 1009.5
20260905051529 62 329 3.0 4.0 0.00 0.00 0.00 46 1009.6
20260905050028 62 330 3.0 5.0 0.00 0.00 0.00 47 1009.6
20260905044530 63 327 3.0 5.0 0.00 0.00 0.00 48 1009.6
20260905043024 63 330 3.0 5.0 0.00 0.00 0.00 49 1009.6
20260905041539 63 327 3.0 5.0 0.00 0.00 0.00 50 1009.5
20260905040021 63 326 2.0 5.0 0.00 0.00 0.00 51 1009.6
20260905034518 63 327 3.0 6.0 0.00 0.00 0.00 51 1009.6
20260905033016 63 327 2.0 5.0 0.00 0.00 0.00 50 1009.7
20260905031511 64 339 3.0 5.0 0.00 0.00 0.00 50 1009.7
20260905030011 64 339 3.0 6.0 0.00 0.00 0.00 50 1009.7
20260905024502 64 339 3.0 4.0 0.00 0.04 0.00 52 1009.6
20260905023058 64 339 3.0 4.0 0.00 0.04 0.00 55 1009.7
20260905021553 64 339 3.0 5.0 0.00 0.04 0.00 57 1009.7
20260905020048 65 339 3.0 5.0 0.00 0.04 0.00 59 1009.6
20260905014544 65 339 2.0 5.0 0.00 0.33 0.00 60 1009.5
20260905013047 66 329 2.0 5.0 0.00 0.33 0.00 57 1009.4
20260905011535 66 329 1.0 4.0 0.00 0.33 0.00 55 1009.5
20260905010030 66 329 2.0 4.0 0.00 0.33 0.00 54 1009.7
20260905004525 67 326 3.0 5.0 0.00 0.36 0.00 53 1009.9
20260905003021 67 326 2.0 6.0 0.00 0.36 0.00 54 1009.7
20260905001516 67 329 2.0 4.0 0.00 0.36 0.00 54 1009.7
20260905000014 67 329 2.0 4.0 0.00 0.36 0.00 56 1009.5
20260904234508 68 329 3.0 5.0 0.00 0.36 0.00 57 1009.3
20260904233003 68 328 2.0 4.0 0.00 0.36 0.00 58 1009.0
20260904231600 69 330 2.0 4.0 0.00 0.36 0.00 59 1009.0
20260904230055 69 329 1.0 4.0 0.00 0.36 0.00 62 1008.8
20260904224550 69 329 2.0 5.0 0.00 0.36 0.00 62 1008.7
20260904223045 70 328 2.0 4.0 0.00 0.36 0.00 62 1008.7
20260904221544 70 329 1.0 4.0 0.00 0.36 0.00 62 1008.4
20260904220037 70 327 2.0 5.0 0.00 0.36 0.00 64 1008.3
20260904214532 70 328 2.0 6.0 0.00 0.36 0.00 66 1008.3
20260904213037 71 339 3.0 6.0 0.00 0.36 0.00 67 1008.5
20260904211523 71 329 4.0 9.0 0.00 0.36 0.00 67 1008.5
20260904210020 72 334 1.0 6.0 0.00 0.36 0.00 67 1008.7
20260904204520 72 321 3.0 6.0 0.00 0.36 0.00 68 1008.8
20260904203029 73 339 5.0 14.0 0.00 0.36 0.00 68 1008.9
20260904201518 73 339 5.0 11.0 0.00 0.36 0.00 68 1009.0
20260904200018 73 353 7.0 14.0 0.00 0.36 0.00 67 1009.0
20260904194517 73 318 4.0 9.0 0.00 0.36 0.00 68 1009.2
20260904193020 73 339 4.0 11.0 0.00 0.36 0.00 68 1009.4
20260904191516 73 323 5.0 10.0 0.00 0.36 0.00 68 1009.6
20260904190016 74 339 5.0 13.0 0.00 0.36 0.00 67 1009.6
20260904184521 74 339 8.0 15.0 0.00 0.36 0.00 67 1009.7
20260904183008 74 318 4.0 17.0 0.00 0.36 0.00 68 1009.7
20260904181517 74 310 10.0 13.0 0.00 0.36 0.00 67 1009.9
20260904180001 74 321 6.0 14.0 0.00 0.36 0.00 66 1009.9
20260904174558 73 312 7.0 13.0 0.00 0.36 0.00 67 1010.0
20260904173054 73 319 8.0 11.0 0.00 0.36 0.00 67 1010.3
20260904171613 73 334 6.0 13.0 0.00 0.36 0.00 66 1010.4
20260904170044 73 339 4.0 10.0 0.00 0.36 0.00 67 1010.4
20260904164540 74 339 7.0 12.0 0.00 0.36 0.00 66 1010.6
20260904163037 74 316 6.0 14.0 0.00 0.36 0.00 64 1010.6
20260904161534 73 358 2.0 10.0 0.00 0.36 0.00 64 1010.5
20260904160035 73 319 2.0 10.0 0.00 0.36 0.00 63 1010.4
20260904154538 73 339 2.0 9.0 0.00 0.36 0.00 60 1010.5
20260904153032 72 310 3.0 9.0 0.00 0.36 0.00 56 1010.7
20260904151524 71 334 5.0 9.0 0.00 0.36 0.00 58 1010.8
20260904150022 71 327 3.0 10.0 0.00 0.36 0.00 58 1010.4
20260904144520 70 325 3.0 9.0 0.00 0.36 0.00 53 1010.2
20260904143019 70 310 1.0 8.0 0.00 0.36 0.00 49 1010.2
20260904141514 69 300 4.0 9.0 0.00 0.36 0.00 42 1010.4
20260904140014 69 314 4.0 10.0 0.00 0.36 0.00 36 1010.5
20260904134509 67 313 3.0 9.0 0.00 0.36 0.00 35 1010.7
20260904133006 67 308 5.0 9.0 0.00 0.36 0.00 34 1010.8
20260904131506 66 313 5.0 8.0 0.00 0.36 0.00 34 1010.8
20260904130003 66 310 4.0 9.0 0.00 0.36 0.00 34 1010.8
20260904124502 65 314 1.0 5.0 0.00 0.36 0.00 34 1010.7